| time (UTC) | temp F | wind direction | speed MPH | gust MPH | rain 1hr in | rain 24hr in | rain mn in | humidity % | barometer mb |
| 20260504221641 | 79 | 212 | 4.0 | 16.0 | 0.00 | 0.00 | 0.00 | 45 | 1003.4 |
| 20260504220040 | 79 | 238 | 3.0 | 11.0 | 0.00 | 0.00 | 0.00 | 45 | 1003.3 |
| 20260504214525 | 79 | 210 | 6.0 | 14.0 | 0.00 | 0.00 | 0.00 | 48 | 1003.4 |
| 20260504213027 | 79 | 203 | 8.0 | 17.0 | 0.00 | 0.00 | 0.00 | 45 | 1003.5 |
| 20260504211553 | 79 | 172 | 4.0 | 17.0 | 0.00 | 0.00 | 0.00 | 43 | 1003.7 |
| 20260504210032 | 80 | 226 | 7.0 | 12.0 | 0.00 | 0.00 | 0.00 | 44 | 1003.7 |
| 20260504204508 | 80 | 240 | 6.0 | 15.0 | 0.00 | 0.00 | 0.00 | 44 | 1004.0 |
| 20260504203047 | 80 | 186 | 6.0 | 12.0 | 0.00 | 0.00 | 0.00 | 45 | 1004.2 |
| 20260504201528 | 80 | 169 | 4.0 | 14.0 | 0.00 | 0.00 | 0.00 | 46 | 1004.2 |
| 20260504200007 | 78 | 207 | 1.0 | 16.0 | 0.00 | 0.00 | 0.00 | 46 | 1004.5 |
| 20260504194535 | 79 | 210 | 7.0 | 17.0 | 0.00 | 0.00 | 0.00 | 44 | 1004.7 |
| 20260504193021 | 79 | 221 | 8.0 | 16.0 | 0.00 | 0.00 | 0.00 | 46 | 1004.8 |
| 20260504191621 | 78 | 245 | 4.0 | 17.0 | 0.00 | 0.00 | 0.00 | 44 | 1004.8 |
| 20260504190040 | 78 | 215 | 8.0 | 16.0 | 0.00 | 0.00 | 0.00 | 46 | 1005.0 |
| 20260504184537 | 78 | 235 | 9.0 | 18.0 | 0.00 | 0.00 | 0.00 | 45 | 1005.2 |
| 20260504183057 | 78 | 233 | 3.0 | 15.0 | 0.00 | 0.00 | 0.00 | 46 | 1005.2 |
| 20260504181541 | 78 | 162 | 6.0 | 15.0 | 0.00 | 0.00 | 0.00 | 46 | 1005.1 |
| 20260504180025 | 77 | 237 | 6.0 | 16.0 | 0.00 | 0.00 | 0.00 | 48 | 1005.3 |
| 20260504174553 | 77 | 188 | 7.0 | 17.0 | 0.00 | 0.00 | 0.00 | 47 | 1005.2 |
| 20260504173035 | 77 | 233 | 4.0 | 16.0 | 0.00 | 0.00 | 0.00 | 50 | 1005.4 |
| 20260504171517 | 76 | 214 | 3.0 | 15.0 | 0.00 | 0.00 | 0.00 | 49 | 1005.5 |
| 20260504081525 | 64 | 189 | 5.0 | 9.0 | 0.00 | 0.00 | 0.00 | 57 | 1008.6 |
| 20260504044527 | 64 | 189 | 1.0 | 6.0 | 0.00 | 0.00 | 0.00 | 60 | 1010.4 |
| 20260504043106 | 64 | 196 | 0.0 | 5.0 | 0.00 | 0.00 | 0.00 | 60 | 1010.7 |
| 20260504043006 | 64 | 206 | 0.0 | 5.0 | 0.00 | 0.00 | 0.00 | 60 | 1010.7 |
| 20260504041542 | 64 | 149 | 0.0 | 5.0 | 0.00 | 0.00 | 0.00 | 59 | 1010.8 |
| 20260504040018 | 64 | 265 | 1.0 | 6.0 | 0.00 | 0.00 | 0.00 | 58 | 1010.8 |
| 20260504034613 | 65 | 200 | 0.0 | 5.0 | 0.00 | 0.00 | 0.00 | 57 | 1010.9 |
| 20260504034504 | 65 | 220 | 0.0 | 5.0 | 0.00 | 0.00 | 0.00 | 57 | 1010.9 |
| 20260504033049 | 65 | 303 | 0.0 | 4.0 | 0.00 | 0.00 | 0.00 | 57 | 1011.0 |
| 20260504031518 | 65 | 129 | 0.0 | 5.0 | 0.00 | 0.00 | 0.00 | 56 | 1011.1 |
| 20260504030005 | 65 | 278 | 0.0 | 6.0 | 0.00 | 0.00 | 0.00 | 55 | 1011.2 |
| 20260504024549 | 65 | 127 | 0.0 | 0.0 | 0.00 | 0.00 | 0.00 | 54 | 1011.3 |
| 20260504023020 | 66 | 139 | 0.0 | 0.0 | 0.00 | 0.00 | 0.00 | 53 | 1011.1 |
| 20260504021606 | 67 | 226 | 0.0 | 1.0 | 0.00 | 0.00 | 0.00 | 51 | 1011.1 |
| 20260504020041 | 68 | 212 | 0.0 | 0.0 | 0.00 | 0.00 | 0.00 | 49 | 1011.2 |
| 20260504014526 | 69 | 186 | 0.0 | 0.0 | 0.00 | 0.00 | 0.00 | 46 | 1011.1 |
| 20260504013009 | 70 | 226 | 0.0 | 0.0 | 0.00 | 0.00 | 0.00 | 45 | 1011.0 |
| 20260504011548 | 71 | 233 | 0.0 | 3.0 | 0.00 | 0.00 | 0.00 | 44 | 1011.0 |
| 20260504010032 | 71 | 205 | 0.0 | 0.0 | 0.00 | 0.00 | 0.00 | 43 | 1011.0 |
| 20260504004514 | 73 | 225 | 0.0 | 5.0 | 0.00 | 0.00 | 0.00 | 41 | 1011.0 |
| 20260504003049 | 73 | 234 | 0.0 | 7.0 | 0.00 | 0.00 | 0.00 | 40 | 1011.1 |
| 20260504001535 | 74 | 205 | 0.0 | 8.0 | 0.00 | 0.00 | 0.00 | 39 | 1011.2 |
| 20260504000019 | 75 | 226 | 5.0 | 9.0 | 0.00 | 0.00 | 0.00 | 38 | 1011.2 |
| 20260503234600 | 75 | 212 | 5.0 | 10.0 | 0.00 | 0.00 | 0.00 | 38 | 1011.2 |
| 20260503233043 | 76 | 240 | 3.0 | 14.0 | 0.00 | 0.00 | 0.00 | 37 | 1011.2 |
| 20260503231522 | 76 | 183 | 2.0 | 12.0 | 0.00 | 0.00 | 0.00 | 38 | 1011.3 |
| 20260503230010 | 76 | 232 | 2.0 | 14.0 | 0.00 | 0.00 | 0.00 | 36 | 1011.4 |
| 20260503224546 | 77 | 193 | 4.0 | 11.0 | 0.00 | 0.00 | 0.00 | 35 | 1011.5 |
| 20260503223030 | 78 | 258 | 5.0 | 14.0 | 0.00 | 0.00 | 0.00 | 35 | 1011.6 |